Theta_e
316 315 316 316 315 315 315 316 316 316 317 316 315 314 311 308 308 308 307 306 307 307 307 307 306 306 306 307 307 307 307 308 311 312 311 314 315 316 319 317 315 313 312 312 311 313 313 312 312 313 315 316 318 319 316 321 329 328 331 329 324 326 321 318 321 320 320 321 319 317 319 320 317 316 314 313 317 317 317 318 321 330 331 329 328 325 327 332
315 315 315 316 315 315 315 315 316 316 316 316 314 313 311 308 308 308 306 306 306 307 307 306 306 306 307 307 308 308 306 307 313 316 313 315 318 316 318 317 314 312 312 312 311 312 313 313 311 313 319 317 316 319 318 319 322 329 330 323 330 338 321 315 320 318 319 319 319 318 318 319 317 316 315 314 315 315 317 316 323 342 337 328 330 328 330 333
315 314 315 315 314 315 315 315 315 315 315 315 314 312 310 308 308 308 307 306 306 306 306 306 306 306 307 307 308 307 307 308 312 315 311 315 319 315 313 313 313 312 312 313 313 313 313 314 311 314 318 316 318 319 321 320 318 329 331 321 334 340 320 315 317 316 318 316 319 318 316 317 316 315 314 315 316 315 319 318 320 336 343 333 330 329 330 331
315 314 314 314 314 315 315 315 315 315 314 313 312 311 309 307 308 308 306 306 306 306 306 306 306 306 307 307 308 308 310 310 311 315 311 314 318 314 312 312 313 313 313 314 315 315 314 314 310 313 316 315 318 318 320 321 316 321 328 331 331 325 318 317 316 318 317 315 318 318 315 316 315 315 314 316 316 315 318 319 319 326 341 335 328 328 329 329
315 314 314 314 314 314 314 314 315 314 313 312 311 310 309 307 308 308 306 306 306 306 306 306 306 307 307 307 308 310 311 308 311 317 315 315 316 312 312 312 312 312 312 314 315 314 313 312 310 314 317 316 318 317 318 320 318 316 319 328 326 317 317 317 317 320 316 315 318 317 316 315 315 315 315 316 315 319 318 317 319 320 334 335 329 327 327 327
315 314 313 314 314 314 313 314 314 313 313 312 310 310 309 308 308 308 306 306 305 305 306 305 306 306 307 307 308 312 313 308 313 319 316 315 314 311 312 312 313 312 312 314 313 314 314 313 313 315 316 316 318 318 318 316 318 320 315 318 319 317 318 317 318 319 318 318 317 316 316 315 316 316 317 316 314 321 319 316 317 314 325 331 328 326 327 327
315 314 313 312 313 313 313 313 313 313 313 312 311 310 310 308 308 307 306 306 305 306 305 305 306 306 308 308 308 313 315 311 315 318 314 312 312 311 312 312 313 312 312 313 313 315 316 314 315 317 317 315 316 315 317 315 317 322 318 315 316 316 318 316 316 319 321 320 317 316 315 315 318 316 315 316 316 321 317 313 311 308 319 328 327 327 327 326
315 314 313 312 312 312 312 312 312 313 313 312 312 310 310 309 308 307 306 306 305 305 305 305 306 306 308 310 311 315 314 313 316 316 312 311 312 312 313 313 314 313 314 314 314 315 316 315 315 315 316 316 315 314 314 314 316 319 318 317 317 317 318 317 316 319 319 318 316 315 315 317 319 315 315 318 320 322 316 314 312 311 322 329 329 329 326 325
314 314 313 312 311 311 311 312 312 312 312 312 312 310 310 309 308 307 306 305 305 305 305 305 305 306 310 312 313 312 311 315 317 314 311 311 312 312 314 314 314 315 315 315 314 313 314 316 316 315 315 315 314 314 315 315 316 316 317 318 318 316 316 315 316 318 318 316 315 315 317 318 317 314 316 320 321 319 317 319 319 320 329 331 330 329 325 324
314 313 313 312 311 310 310 311 311 312 311 312 311 310 310 309 309 308 306 305 305 305 305 305 306 307 311 312 311 310 313 317 316 313 311 311 312 313 315 314 314 316 315 314 313 313 315 316 316 315 315 315 314 315 315 314 315 317 319 319 318 317 315 315 316 316 317 316 316 317 317 317 316 315 318 321 318 315 318 321 318 323 333 327 326 327 323 323
314 313 313 312 311 311 310 310 310 311 311 311 311 311 310 309 309 308 307 305 305 305 305 305 307 307 311 312 310 310 315 317 315 313 311 311 312 313 314 313 314 316 315 315 314 314 316 316 315 314 314 314 316 317 316 315 316 318 320 317 317 318 316 315 316 316 316 316 317 318 317 316 315 316 319 317 315 314 318 321 318 323 329 322 322 324 320 320
314 313 313 312 312 311 311 311 310 310 310 311 311 311 310 310 309 308 307 306 306 306 306 306 307 310 311 309 310 313 316 317 315 312 311 311 313 313 312 313 314 316 316 315 315 315 316 315 315 315 314 315 316 317 316 317 316 317 320 318 317 322 320 316 316 317 316 316 317 317 314 316 317 317 318 316 316 316 316 320 319 321 323 318 319 320 318 317
314 314 313 312 312 311 311 311 310 309 310 310 311 310 310 310 308 308 307 306 307 306 307 307 307 312 311 307 312 315 315 316 313 312 311 312 313 312 312 314 314 315 316 316 315 314 315 316 317 317 316 318 317 314 315 317 316 317 319 320 321 322 323 317 315 317 315 316 317 314 312 318 321 318 317 316 316 316 316 318 318 318 318 316 316 316 317 315
314 313 313 312 312 311 311 311 310 310 310 310 311 311 311 310 308 307 307 307 307 307 308 308 308 313 310 307 313 316 315 314 312 312 312 312 313 313 313 314 314 314 315 315 315 314 316 316 315 316 315 318 317 313 318 319 318 318 314 323 325 317 322 321 316 317 315 315 317 313 313 319 322 319 316 315 316 316 317 319 317 316 316 316 316 315 315 314
314 313 312 312 311 311 310 310 310 310 310 311 311 312 310 309 308 307 307 308 308 308 309 309 310 311 308 309 314 315 314 312 312 312 313 313 313 314 314 314 314 314 314 314 315 316 316 315 316 318 315 315 316 316 323 321 323 325 314 322 325 314 325 329 317 318 317 315 316 314 316 319 320 319 317 315 316 315 317 321 320 318 318 317 317 315 315 313
313 313 312 311 311 310 310 309 310 310 310 311 312 311 309 309 308 307 309 309 309 309 309 311 313 310 308 311 314 314 313 313 313 313 314 314 313 315 314 315 314 314 315 315 317 316 315 317 317 317 317 317 319 321 325 323 327 331 318 320 325 316 322 324 316 318 319 317 316 314 316 320 318 317 317 317 317 316 318 322 323 321 321 319 318 316 315 314
313 313 312 311 310 309 309 309 310 310 311 312 311 310 309 310 309 309 311 310 311 311 311 313 313 309 308 310 313 315 314 314 313 313 315 315 315 315 314 315 314 314 316 315 316 315 314 318 315 315 318 318 322 324 321 318 321 325 319 319 324 319 318 321 319 318 317 317 318 316 316 320 320 318 320 319 316 316 319 322 324 323 322 320 318 316 315 315
313 312 312 311 310 309 309 309 309 309 311 310 310 310 311 312 311 312 312 311 312 310 311 312 309 309 310 310 314 317 314 314 314 313 316 316 315 314 315 315 313 314 317 317 316 314 315 319 319 321 320 316 320 323 321 321 322 322 320 320 321 317 317 321 321 317 316 317 318 318 317 320 321 318 318 317 313 315 318 319 319 319 319 319 317 316 315 314
313 312 311 310 309 309 309 309 309 310 310 310 311 312 312 312 312 313 313 312 311 307 309 310 308 312 313 312 316 316 314 314 313 314 315 316 314 315 316 314 316 317 318 319 315 314 321 322 319 320 317 317 318 321 326 329 327 325 326 329 326 319 318 320 319 315 315 317 318 320 318 318 319 316 316 315 312 313 317 317 316 316 316 315 315 315 315 315
312 312 310 309 309 309 309 310 310 311 310 311 312 312 312 313 314 314 314 315 312 308 310 311 310 315 317 316 317 315 314 313 313 314 314 315 315 316 315 315 322 322 319 322 316 315 325 323 319 320 317 318 319 321 326 324 323 325 326 328 326 320 318 318 318 317 315 316 319 320 318 318 318 316 316 313 311 312 315 316 316 316 315 314 315 315 314 315
312 311 310 309 309 310 310 310 311 311 311 311 312 313 313 313 313 313 314 315 310 308 312 313 312 317 317 315 315 313 314 314 313 314 314 314 315 314 315 316 321 320 319 323 319 319 326 320 318 325 323 318 317 320 320 316 320 324 324 325 322 319 318 316 317 319 316 315 319 320 318 317 316 315 315 312 311 312 314 314 314 314 314 313 315 316 315 314
311 311 309 309 310 311 311 311 311 311 311 312 313 317 316 312 310 310 311 310 306 308 313 313 313 317 315 313 313 313 316 317 315 316 315 315 315 314 316 318 319 319 317 319 322 322 325 321 320 327 323 316 315 317 318 320 326 329 324 321 319 318 318 317 318 320 317 315 321 324 320 316 315 314 314 314 314 313 312 312 313 313 313 314 314 314 314 315
310 310 309 310 310 311 312 311 311 311 312 312 314 316 314 310 311 311 310 309 307 310 313 313 317 320 315 312 314 314 314 316 316 317 315 314 316 316 317 317 318 320 317 318 324 321 319 321 323 324 318 315 316 316 319 322 325 329 325 319 319 320 318 318 319 318 316 315 318 322 320 317 315 318 320 316 313 313 314 314 313 313 314 314 315 314 315 315
310 309 310 310 310 312 312 312 312 311 311 313 315 316 312 310 311 311 311 310 310 313 313 312 316 320 318 314 314 314 314 315 316 316 314 314 315 315 317 316 317 320 318 320 322 321 321 319 317 319 318 320 319 316 320 320 316 325 335 332 324 322 320 319 320 319 316 316 319 319 317 320 322 327 331 321 312 314 319 317 316 317 316 314 315 315 314 315
310 310 310 310 311 312 312 313 312 311 312 313 315 315 313 310 309 310 313 312 311 312 310 310 313 316 317 314 314 316 315 315 317 315 313 314 314 314 315 314 316 320 318 319 319 320 322 317 314 318 320 323 322 319 325 325 317 319 332 333 325 325 326 323 323 322 319 317 317 315 314 322 328 326 326 320 314 315 315 314 315 317 316 315 316 315 312 314
312 312 311 311 312 313 313 315 313 311 313 313 313 314 312 310 309 310 314 314 313 311 309 309 311 312 314 314 316 317 314 315 315 313 313 313 314 314 314 313 315 317 316 317 318 319 319 317 319 322 322 322 321 321 322 324 320 314 319 324 328 333 329 323 321 319 320 317 313 315 316 318 319 316 317 318 315 317 315 315 317 313 311 312 314 315 315 318
314 313 313 312 313 313 314 317 314 312 313 312 312 313 311 311 310 310 314 313 313 312 309 308 308 309 313 314 315 314 314 316 313 312 314 314 313 312 314 314 313 315 316 318 319 318 317 319 320 323 326 323 320 320 319 322 323 315 318 325 331 333 327 328 328 319 321 319 318 326 324 318 318 314 317 319 316 320 320 320 321 315 310 312 313 315 319 321
316 314 314 314 313 314 315 316 314 312 313 311 311 311 311 310 309 311 315 312 312 312 309 308 307 310 314 312 313 314 314 316 316 314 312 312 313 312 316 317 315 316 316 318 321 318 317 321 322 323 326 324 322 323 320 323 324 318 319 325 328 330 331 338 337 327 324 317 319 329 319 316 325 320 319 320 315 319 322 320 319 315 313 315 315 316 319 324
316 316 315 314 314 315 316 316 314 314 314 311 311 311 311 309 308 313 315 310 309 311 309 308 308 312 314 311 312 314 314 316 317 316 313 312 312 312 314 316 317 316 314 318 325 320 316 318 321 323 323 323 323 323 321 324 323 320 320 323 326 329 332 336 333 325 323 317 319 327 316 313 323 324 322 318 314 320 323 321 318 317 320 324 324 324 328 337
317 317 317 316 316 316 316 316 316 317 315 311 310 310 310 311 311 310 309 309 312 312 309 309 310 313 315 312 312 313 316 318 317 315 314 315 314 313 313 313 316 319 319 324 327 322 317 314 316 319 319 322 322 319 320 323 319 319 326 328 328 332 333 337 335 323 315 319 324 326 319 311 316 327 328 317 314 318 319 321 322 324 330 333 334 336 340 344
318 318 318 317 317 316 317 317 317 318 315 310 310 310 311 316 316 309 306 311 317 314 309 310 311 313 313 312 313 314 317 318 315 315 315 315 316 316 314 313 317 321 321 324 324 321 318 315 316 317 316 320 324 320 320 323 323 323 332 331 323 328 330 333 335 323 314 321 325 323 320 313 314 324 326 320 319 318 316 319 323 327 332 333 334 336 336 338
317 318 318 317 317 317 318 319 319 317 313 310 311 312 313 314 313 311 310 311 315 315 312 312 313 314 313 313 315 316 319 319 315 314 317 318 317 316 315 317 320 318 316 320 321 319 318 319 318 316 315 319 326 326 321 326 329 324 325 325 317 321 323 322 328 323 319 320 318 319 320 315 316 320 319 322 324 321 318 317 319 324 326 327 331 335 336 334
315 317 318 317 317 318 318 319 319 315 311 310 312 315 318 314 309 312 313 311 313 315 314 314 313 313 313 313 315 316 318 318 316 314 316 318 318 316 316 318 319 319 320 322 322 318 320 324 319 316 317 317 321 324 320 324 326 319 319 321 319 321 319 320 324 319 319 320 316 316 318 318 321 319 316 319 317 317 319 317 318 323 327 332 340 346 345 336
315 316 317 317 317 318 317 318 318 313 310 312 312 313 316 312 310 312 312 311 315 316 315 315 314 312 313 313 314 315 316 315 315 315 315 316 317 317 317 315 315 324 328 322 320 320 318 323 322 318 320 319 317 320 324 325 322 319 320 317 319 326 324 323 324 319 319 322 318 314 317 325 324 315 315 319 317 316 316 314 315 320 327 335 342 344 339 335
314 314 316 316 316 317 318 317 316 312 311 313 311 311 310 309 311 312 311 315 319 318 315 314 313 312 313 313 313 314 317 317 315 315 316 317 316 316 317 314 314 324 326 317 317 319 316 319 323 319 317 319 318 318 322 323 320 320 318 314 315 323 324 319 318 321 320 320 319 316 321 328 321 313 316 319 320 320 316 314 317 319 321 323 325 324 324 332
312 314 315 315 315 316 317 317 316 314 314 313 310 309 309 310 316 316 314 318 320 316 313 312 313 314 312 313 315 313 314 319 317 315 316 316 315 315 315 314 314 317 318 316 319 319 316 319 320 317 316 318 318 317 319 320 319 317 316 319 319 318 323 320 314 315 315 314 318 318 321 323 316 315 317 313 315 317 315 316 320 323 323 322 320 316 320 331
310 312 313 313 315 316 315 317 316 315 317 315 309 309 310 310 317 322 321 318 315 313 314 313 313 314 312 313 316 314 314 319 317 315 317 315 315 316 315 315 314 313 313 316 318 319 322 322 317 316 317 316 314 317 320 318 318 320 321 322 317 313 321 324 318 320 318 315 319 318 317 317 314 317 317 311 311 313 315 319 322 324 324 325 321 315 320 328
308 309 311 311 314 315 315 316 314 314 318 316 308 312 316 312 314 322 322 316 313 314 316 316 315 314 313 314 316 314 313 318 316 316 317 314 315 316 315 315 315 313 313 313 314 317 320 319 316 315 318 318 316 318 320 317 315 320 323 321 319 320 323 320 317 321 319 317 322 321 316 313 313 316 314 311 312 314 317 319 319 320 319 321 323 322 325 328
307 310 313 311 311 315 316 315 313 315 318 314 309 313 318 316 315 320 319 317 319 317 315 319 318 314 314 315 316 314 314 316 316 316 316 314 315 316 313 314 316 313 312 312 313 315 316 314 316 315 315 317 317 317 321 320 316 317 317 315 319 324 325 322 318 319 319 318 320 319 315 313 315 317 314 312 316 318 318 316 318 322 321 322 324 325 328 330
307 312 313 310 310 314 315 314 314 316 316 312 311 313 315 316 316 317 316 317 320 318 319 325 320 315 315 315 315 315 314 316 316 316 316 313 314 315 312 313 315 314 313 311 313 316 314 312 315 315 313 315 319 318 320 321 319 319 318 316 319 319 319 321 318 317 320 322 321 317 314 317 319 316 314 314 316 317 317 317 321 324 323 325 325 325 329 331
307 310 311 310 311 313 314 314 313 313 314 313 313 314 315 316 316 317 317 317 317 316 322 327 322 319 319 316 316 316 315 317 316 315 315 313 313 315 314 314 316 315 313 311 313 316 314 313 320 321 317 319 323 320 318 318 318 318 317 317 318 318 317 319 317 316 317 319 322 318 313 317 319 314 313 317 316 316 320 320 320 318 318 323 324 326 331 329
305 307 309 310 312 313 314 314 311 310 311 312 312 313 314 316 317 318 317 317 318 317 318 321 321 324 323 318 318 318 316 317 317 316 317 314 314 315 315 316 316 314 314 313 313 316 317 319 324 324 321 322 322 317 316 318 317 316 318 319 317 317 319 319 319 321 319 316 319 320 316 316 315 312 314 317 316 319 323 321 318 316 316 320 322 326 332 332
306 307 309 311 311 312 312 312 311 309 309 310 311 312 313 315 317 318 316 316 318 318 317 319 320 321 321 320 319 317 316 316 316 317 318 316 314 317 321 322 318 313 314 314 313 314 317 318 319 320 321 324 323 318 317 318 317 315 319 320 318 319 321 323 324 323 322 320 318 318 318 315 313 315 317 317 318 319 319 318 318 319 318 321 324 328 331 331
306 307 309 309 308 310 311 312 312 311 310 310 311 311 313 315 315 316 317 317 318 318 318 319 318 317 320 322 321 319 317 316 316 317 319 317 314 318 324 326 320 314 314 317 315 314 315 317 318 318 319 321 324 322 319 318 317 318 323 322 319 320 321 321 321 318 318 323 321 317 317 315 315 320 322 321 321 319 316 318 320 320 318 321 325 328 328 328
304 304 305 307 307 309 311 311 311 311 310 310 311 311 312 314 314 316 317 318 319 319 319 318 319 320 321 321 321 321 319 318 319 319 318 318 317 319 323 323 319 316 318 322 319 314 317 320 318 316 316 317 319 320 320 321 320 321 326 324 318 319 319 317 319 317 317 321 320 317 316 314 314 317 319 320 320 317 318 321 320 317 317 320 321 324 326 326
304 303 303 305 307 309 310 310 311 311 311 311 312 312 312 313 314 315 315 316 318 319 319 320 320 321 321 319 320 322 320 319 320 319 320 321 320 320 320 319 319 319 321 322 319 317 324 323 315 314 315 313 315 319 321 323 322 320 322 321 317 318 318 317 319 320 317 316 317 317 315 314 315 314 315 319 320 320 321 321 320 320 323 323 321 322 324 324
303 304 304 305 307 309 309 310 311 311 311 312 312 313 312 313 314 315 314 315 317 317 318 318 318 319 320 319 320 321 321 320 319 320 322 322 320 318 316 316 318 319 319 318 316 319 324 322 316 315 315 315 320 325 323 319 319 319 320 320 319 318 317 318 318 318 316 316 317 317 315 315 315 314 316 318 320 320 319 318 320 321 323 325 322 323 324 324
302 303 303 303 306 308 309 310 310 310 311 311 311 312 313 312 313 315 315 314 316 316 316 317 318 318 319 319 319 320 320 319 319 320 321 321 319 319 318 316 317 318 319 317 318 322 323 321 319 317 315 318 323 325 321 317 318 318 318 318 319 318 317 317 317 316 316 317 316 315 316 317 314 313 316 317 316 317 317 318 318 317 320 322 322 322 322 322
301 302 302 302 303 305 306 309 310 309 310 310 311 312 312 312 313 314 314 315 315 316 316 316 316 317 318 318 319 320 319 318 319 319 320 321 320 320 320 320 316 316 321 321 319 321 321 321 322 318 316 320 322 321 320 318 318 319 319 319 318 317 316 316 316 315 315 316 316 316 317 317 314 314 318 318 317 319 319 318 317 316 318 320 320 321 321 320
300 301 303 303 304 304 305 307 309 309 309 309 310 311 311 312 312 313 314 314 314 315 315 315 315 315 316 317 318 318 318 318 319 319 319 320 320 319 319 321 318 316 320 321 319 318 317 319 322 321 319 320 320 320 320 321 319 319 321 322 320 317 315 315 315 315 315 316 316 316 317 317 313 316 319 318 317 318 318 318 318 316 315 315 317 320 320 320
299 300 302 304 305 305 304 306 307 308 309 308 309 310 309 310 312 312 313 314 314 315 315 314 315 315 315 316 316 317 316 317 318 317 316 318 320 319 317 319 320 319 320 319 319 320 319 318 320 321 321 320 320 319 319 319 319 319 321 322 320 317 316 315 315 315 316 317 317 317 317 316 314 317 319 316 314 317 318 317 317 316 315 316 318 320 319 318
299 299 301 302 303 303 304 305 306 307 307 307 307 308 308 309 311 312 313 313 313 314 314 314 314 315 316 315 315 315 315 316 315 315 314 314 317 318 316 317 319 320 319 318 318 319 320 320 320 321 321 320 319 320 320 319 320 320 320 319 317 316 317 316 316 316 315 315 317 317 316 315 315 317 318 316 315 318 317 315 315 316 317 318 318 316 314 313
Wind_Speed
15 15 12 11 11 10 10 9 9 8 8 7 8 10 12 14 13 11 13 14 14 14 14 14 12 11 9 7 7 5 3 3 3 6 5 5 8 5 5 8 7 6 5 5 6 5 3 1 1 1 3 3 1 1 1 1 2 3 3 2 1 3 2 4 6 5 3 4 6 5 5 8 4 1 1 2 5 3 3 5 3 4 6 4 1 9 26 31
14 15 12 12 11 10 9 9 8 7 7 7 9 11 12 14 12 10 11 13 13 13 13 13 12 10 8 7 7 4 3 3 3 4 7 7 7 5 5 7 7 6 5 5 6 5 4 1 2 4 4 2 1 1 1 0 2 2 3 2 3 5 4 4 5 4 2 4 7 5 5 6 6 5 2 2 0 2 4 2 5 4 5 6 7 17 26 28
14 14 13 12 11 10 9 9 9 8 7 8 10 11 11 13 11 9 10 12 12 13 12 12 10 9 7 7 6 4 4 3 2 4 8 10 7 6 7 7 7 6 5 5 6 5 5 2 2 4 4 2 1 2 2 0 1 2 4 2 5 6 3 3 3 3 4 5 9 5 4 3 4 5 2 4 4 2 5 4 1 1 3 3 6 14 22 24
14 14 13 12 11 10 9 9 9 7 7 9 10 9 10 12 10 8 9 11 12 12 12 10 9 8 7 7 6 6 5 4 1 5 9 11 8 7 8 8 7 6 6 6 6 5 3 1 3 4 4 1 3 2 1 2 2 2 4 4 6 3 2 2 2 3 3 4 8 6 5 2 3 4 3 7 6 3 6 7 7 9 9 9 7 11 18 20
14 14 14 12 11 10 9 8 8 6 6 8 9 8 9 11 9 9 9 10 11 11 10 9 8 7 7 7 6 6 5 3 2 4 10 12 10 9 8 7 6 6 7 7 6 5 3 2 4 4 4 1 1 3 2 4 3 2 0 5 5 4 2 2 2 4 1 5 6 7 6 4 3 2 4 9 7 6 7 8 11 11 12 15 13 14 16 16
14 14 14 12 11 10 9 8 7 5 6 7 8 8 9 10 9 9 10 10 10 10 9 8 7 7 7 6 6 6 5 2 2 4 10 13 11 10 8 6 6 6 7 7 6 4 3 4 5 3 3 2 3 2 4 2 3 3 2 3 2 3 3 1 1 3 1 8 6 6 4 3 4 1 3 8 8 8 6 7 11 9 13 18 17 16 14 13
15 14 14 13 12 11 9 8 7 5 5 6 8 8 9 10 9 9 10 10 10 9 9 7 7 7 7 7 6 3 3 2 2 6 11 13 12 9 8 6 5 5 6 7 4 4 4 5 4 4 4 2 4 4 3 1 4 5 2 2 1 1 2 1 1 2 4 7 5 4 2 3 6 2 1 5 9 8 6 2 4 8 15 18 15 14 15 16
15 14 14 14 14 12 10 8 7 6 5 6 8 8 8 9 9 8 9 10 9 9 8 7 7 8 8 8 5 3 1 3 4 9 12 12 11 9 8 6 6 5 5 5 4 5 4 5 3 4 4 2 5 4 2 4 4 3 3 3 0 1 1 2 2 4 4 3 2 5 3 3 6 3 0 6 10 8 6 3 5 9 13 13 13 13 13 14
15 14 13 14 14 13 10 9 7 6 6 6 7 9 8 8 8 7 8 9 9 9 8 8 8 8 10 7 5 3 2 3 6 11 13 12 10 9 8 6 7 6 5 4 4 6 4 3 4 4 4 3 4 5 3 5 1 3 5 4 2 1 3 2 2 3 2 1 2 4 0 5 3 1 3 9 10 5 3 5 5 9 10 10 11 13 13 13
15 14 12 12 13 13 10 9 8 7 6 6 7 8 8 8 8 7 8 8 8 9 8 8 8 9 11 5 5 3 4 3 7 12 13 12 10 9 8 7 7 5 5 4 5 6 4 4 4 4 5 2 3 3 3 5 3 4 6 4 4 1 2 1 1 1 1 1 1 4 2 4 3 2 4 8 5 4 7 5 4 8 10 11 10 11 15 15
14 12 12 12 12 12 10 9 9 8 7 7 6 8 8 7 8 7 7 8 7 8 8 9 9 10 9 4 5 4 3 4 8 12 13 11 9 9 8 7 6 5 5 5 6 5 4 5 5 5 2 1 3 2 1 3 4 6 7 5 5 5 3 1 1 2 0 1 2 6 2 3 4 1 6 6 1 6 8 7 6 7 8 10 10 10 11 14
14 12 11 11 11 11 10 10 11 10 8 7 6 7 8 7 8 7 7 7 6 7 9 10 10 10 6 3 3 4 2 5 8 12 12 10 9 8 7 6 6 6 5 4 5 5 3 4 6 5 1 3 4 1 1 2 5 5 6 4 5 8 3 3 1 2 0 2 2 4 0 3 2 6 8 3 3 4 7 7 7 7 7 7 9 8 8 14
14 13 11 11 10 10 10 10 11 10 9 7 7 7 8 7 7 7 7 7 7 7 9 10 11 10 5 1 3 4 4 6 10 12 12 10 8 8 7 6 6 5 4 3 5 6 4 2 5 6 3 5 3 1 3 3 4 3 4 5 2 7 4 5 1 0 2 1 1 3 1 6 6 10 8 5 4 2 5 8 7 7 6 6 7 6 7 12
14 13 12 11 10 10 10 9 9 9 8 7 6 6 6 6 7 7 7 8 9 8 8 10 12 8 2 1 3 3 6 9 11 12 12 10 9 8 7 6 6 5 3 3 5 6 4 3 6 6 3 4 3 2 4 5 3 2 2 3 2 1 4 7 2 3 4 1 4 6 2 7 8 11 9 7 5 6 7 8 7 6 6 6 6 7 8 10
15 14 12 11 11 10 10 9 9 9 8 7 6 5 6 7 7 8 9 10 10 10 9 9 11 7 1 2 2 4 8 9 11 12 11 11 9 7 6 7 6 5 5 6 7 6 5 6 6 5 1 2 4 5 4 4 3 3 2 1 3 2 4 8 2 5 5 1 5 7 2 6 8 10 8 5 1 7 7 7 6 6 7 7 7 7 8 10
15 14 13 12 12 11 10 10 9 9 8 6 6 6 7 7 8 9 10 11 11 11 9 8 9 6 2 1 1 4 6 6 10 11 10 11 9 6 8 8 6 6 7 6 7 6 6 6 4 2 3 3 5 6 4 3 3 3 3 2 2 2 3 5 2 2 3 1 2 2 3 4 4 6 7 5 5 5 5 6 7 7 8 8 7 8 8 9
16 15 13 13 12 11 10 10 10 10 8 7 6 6 8 8 9 10 10 11 12 10 8 6 7 4 1 1 2 3 4 6 10 11 9 8 8 9 9 6 4 6 6 6 6 4 5 5 1 0 3 4 3 5 5 1 3 3 2 1 3 3 2 2 3 3 2 2 1 0 3 6 6 7 9 7 3 2 4 7 7 7 8 8 7 8 8 9
16 15 15 14 13 12 11 10 10 10 8 8 8 8 9 10 11 10 11 13 11 8 6 3 4 2 2 2 3 3 5 8 10 10 9 7 8 9 6 3 5 6 6 5 4 3 3 4 2 1 3 3 2 5 4 4 5 5 3 2 2 2 3 3 3 2 2 1 2 1 3 9 12 10 10 9 3 3 8 8 8 8 9 9 8 8 9 9
16 16 15 14 13 13 12 11 10 9 8 8 10 12 12 11 10 8 9 9 7 5 2 3 4 3 4 4 3 4 7 10 10 8 7 6 7 6 4 5 6 6 5 3 2 2 2 3 4 3 2 2 4 6 6 7 8 8 5 5 4 3 3 5 4 4 1 2 4 5 6 8 11 11 10 10 5 5 9 8 8 9 9 9 8 8 10 10
16 15 14 13 14 14 13 12 10 9 8 10 14 12 9 7 5 3 1 1 2 2 3 5 5 3 1 1 4 8 10 8 5 5 6 5 7 6 4 5 6 6 4 4 2 0 4 4 2 4 7 7 7 7 6 5 6 7 5 5 4 4 3 4 3 4 1 3 5 5 5 8 10 12 12 10 5 4 9 9 10 11 9 10 9 10 11 11
15 14 13 14 16 14 13 12 10 10 9 12 15 7 4 5 4 3 2 2 4 2 1 4 5 3 1 4 8 9 7 4 2 2 5 4 6 7 1 3 5 4 0 3 3 2 5 5 6 7 9 8 7 6 6 6 5 6 6 5 1 2 2 3 2 5 2 1 4 3 4 10 10 11 11 9 7 8 10 11 12 13 11 9 9 12 12 10
16 15 15 17 17 14 13 12 10 10 9 12 11 4 2 3 4 7 6 2 3 1 3 2 4 3 2 5 9 5 4 4 2 1 4 3 3 4 2 4 6 4 0 3 4 4 5 3 9 8 6 4 4 5 7 6 5 5 4 5 2 2 2 4 4 5 3 1 4 5 6 11 10 9 11 10 10 10 9 10 11 11 10 9 10 12 11 10
18 18 18 18 17 14 13 11 10 10 10 12 8 3 1 2 5 8 6 4 2 1 2 1 2 3 2 2 6 3 4 4 4 4 5 5 2 3 4 5 5 5 3 4 5 4 2 5 8 5 6 7 6 4 7 6 4 4 4 4 2 2 1 2 4 4 3 1 2 4 6 10 8 5 9 10 8 8 7 9 10 9 10 12 12 10 10 12
19 19 19 19 17 14 12 10 9 9 13 12 7 4 3 4 7 8 4 4 2 1 1 2 2 4 3 3 5 5 3 2 4 5 7 7 4 3 5 5 5 5 4 6 8 7 5 6 3 6 6 7 6 3 6 6 1 1 3 5 3 3 3 3 2 2 3 4 3 4 5 8 5 4 6 6 4 6 6 6 8 8 10 11 10 10 10 10
19 19 19 19 16 14 13 9 7 10 13 10 7 5 4 5 6 7 3 3 1 1 2 2 1 4 6 5 5 5 3 1 1 4 7 8 6 4 3 2 4 5 5 6 8 5 6 5 4 8 4 5 6 3 4 7 2 3 2 6 7 6 6 2 2 4 5 4 4 5 4 6 5 4 7 6 6 7 5 5 10 10 9 8 9 11 9 7
19 18 18 17 16 16 12 6 7 11 10 7 7 6 4 3 6 7 4 4 1 1 1 3 1 5 8 5 5 4 3 1 1 1 5 6 3 3 3 1 2 4 6 6 4 3 2 1 5 7 5 6 5 2 3 6 5 1 4 5 7 8 7 4 2 3 1 3 3 4 3 5 8 6 8 6 6 10 8 8 12 11 8 7 8 9 6 6
18 17 17 16 16 17 9 4 10 13 6 6 8 7 5 3 5 5 5 5 3 2 5 2 1 6 8 5 6 6 3 4 2 3 2 3 1 3 4 4 2 3 4 5 2 2 2 3 6 6 6 6 5 3 4 6 7 3 4 6 8 8 7 5 5 3 2 3 4 4 4 2 7 6 4 2 6 9 10 11 12 9 8 8 7 8 8 7
18 18 17 16 17 17 7 5 13 10 3 6 11 9 5 5 4 3 5 2 2 2 4 2 0 5 5 2 5 5 2 3 5 1 1 3 1 3 3 6 6 5 2 5 4 4 2 4 4 6 6 4 4 4 5 7 6 4 4 7 6 7 7 5 6 3 1 2 5 4 2 2 7 7 3 3 5 8 10 11 11 9 8 8 7 8 8 7
18 19 18 16 15 12 5 6 11 7 4 8 11 10 7 5 3 4 4 2 1 2 2 2 3 3 2 4 4 3 1 2 2 3 2 3 0 3 3 5 6 7 3 4 6 3 1 4 6 7 6 5 4 2 3 5 4 3 5 7 5 6 6 5 5 3 2 3 5 5 4 2 6 7 5 3 2 6 8 8 8 9 8 7 7 7 7 6
20 19 18 17 14 10 6 6 8 7 6 9 12 12 9 4 3 5 2 4 2 1 0 2 3 2 6 7 1 1 2 2 0 1 2 1 2 5 2 2 5 7 4 6 4 1 2 2 2 4 4 6 5 2 1 3 5 6 6 7 6 6 5 4 3 4 2 3 6 6 5 2 4 7 4 2 3 5 5 6 7 7 7 6 5 5 6 4
19 20 19 19 16 13 8 4 8 8 5 10 15 13 7 3 3 5 5 4 3 2 1 2 2 4 11 12 4 1 3 2 1 5 3 1 2 3 1 2 4 5 3 4 2 3 4 3 0 1 2 4 6 5 4 4 4 6 5 5 4 4 5 4 4 4 1 5 6 5 2 3 4 6 4 5 6 6 4 3 6 6 7 7 6 5 5 4
15 19 19 19 16 13 7 4 8 8 7 14 15 8 5 3 2 5 3 1 2 3 4 4 3 6 10 9 5 4 3 2 1 5 6 4 3 3 3 4 4 4 2 3 1 2 2 1 3 2 1 4 6 5 4 6 5 6 5 6 4 2 3 3 3 0 3 6 4 3 1 3 6 6 7 9 8 8 7 3 4 3 3 4 4 5 5 4
8 16 19 19 15 12 7 5 8 8 11 15 9 4 6 4 6 6 2 1 2 3 4 4 3 6 10 8 5 5 3 2 3 3 3 4 5 5 3 3 5 5 3 4 4 2 1 4 3 1 2 2 6 6 3 0 1 4 5 6 5 2 1 3 4 2 4 5 3 3 1 3 5 4 8 11 8 6 7 6 7 5 3 3 5 6 5 4
5 11 20 19 15 12 8 6 6 9 11 9 5 5 5 6 6 4 4 4 1 3 2 4 7 7 8 5 5 5 3 1 5 5 3 4 5 6 5 4 3 5 4 4 3 5 4 4 4 5 2 3 6 5 7 6 4 3 4 6 6 5 5 4 4 3 4 3 3 3 1 3 3 2 7 9 7 5 6 6 7 7 7 6 6 6 5 5
6 9 16 16 13 12 10 6 5 8 8 5 5 6 8 8 4 3 5 5 1 3 3 4 9 8 5 1 1 5 3 2 4 4 4 5 5 7 6 6 6 4 5 5 2 2 4 5 5 2 1 7 7 3 5 7 2 2 3 5 3 5 5 2 3 5 3 2 3 2 3 5 4 6 8 6 7 7 5 5 7 7 5 4 6 5 4 5
7 8 9 10 11 12 11 8 5 4 4 5 6 7 7 5 4 4 5 4 4 6 7 5 4 6 5 2 2 6 2 3 4 4 3 4 3 6 6 5 7 7 6 6 3 2 3 4 5 3 2 3 5 3 3 4 3 2 3 3 5 4 7 4 2 0 3 2 4 2 4 5 3 7 9 5 7 9 8 7 7 8 6 4 4 2 2 6
6 7 5 4 6 10 12 10 6 3 2 5 7 8 3 1 3 3 2 3 5 8 9 5 2 4 6 3 4 6 2 2 4 3 3 3 2 5 6 4 5 10 8 5 2 3 5 2 4 1 2 2 1 3 3 2 4 5 3 6 3 2 4 4 2 3 3 3 5 1 5 5 1 5 6 5 3 7 7 7 6 8 8 7 5 1 4 8
5 5 2 2 4 6 9 9 7 4 4 4 8 7 1 1 1 1 0 3 6 6 6 5 3 4 6 5 5 6 5 4 5 4 3 3 4 5 8 4 4 10 9 4 2 3 5 2 4 1 3 3 4 3 2 4 3 5 4 4 4 2 1 2 2 2 1 3 5 3 5 4 5 6 1 2 4 6 6 6 5 8 8 6 6 4 5 5
4 3 1 2 4 5 9 10 7 5 3 5 9 6 1 1 1 1 1 1 4 5 5 5 3 3 5 6 5 5 6 6 7 6 4 4 5 5 9 6 4 8 10 6 4 3 4 4 3 2 1 1 3 2 4 1 3 3 2 3 3 3 4 3 3 3 3 3 3 3 4 3 5 6 7 7 7 7 7 7 6 8 8 5 5 4 5 4
3 2 1 3 6 8 12 12 5 3 3 5 5 3 1 1 2 3 2 1 2 2 3 4 3 4 5 5 4 5 5 5 7 6 4 5 5 4 6 7 4 7 8 7 5 3 3 3 4 2 3 1 2 3 7 8 5 3 3 4 2 2 2 2 1 2 4 4 3 2 5 6 4 4 8 10 9 9 8 6 6 5 3 3 4 3 3 5
2 2 1 4 10 12 12 8 2 2 2 2 1 1 1 0 1 2 3 3 3 1 2 4 4 4 5 4 4 5 5 4 6 5 3 5 6 4 5 7 7 7 6 5 5 4 3 3 4 2 1 4 5 4 6 10 8 7 7 8 7 5 4 3 3 2 2 3 4 3 7 9 5 5 7 8 8 8 6 6 5 2 5 3 1 2 2 2
2 2 1 6 14 15 8 2 1 3 1 1 1 1 1 1 1 1 2 3 3 1 2 3 2 3 4 4 4 5 6 4 5 5 4 6 7 5 4 4 8 10 8 6 6 4 3 4 4 3 3 6 6 5 3 5 3 2 3 5 6 5 5 6 5 4 1 2 3 3 4 7 3 4 6 6 6 5 5 6 6 5 4 1 2 3 2 3
2 1 1 7 16 15 6 2 3 3 2 2 2 0 0 1 1 1 1 1 1 1 2 1 1 2 2 2 3 6 6 5 6 7 5 4 6 5 2 1 6 10 8 5 4 3 2 4 4 1 3 3 5 5 3 1 0 1 1 2 5 4 4 5 5 4 3 4 3 3 5 7 2 1 3 3 2 3 3 5 6 4 1 3 4 5 5 4
1 1 1 3 10 10 5 4 4 4 3 4 4 2 1 0 1 2 2 1 1 2 2 1 1 1 1 2 3 5 6 4 6 7 4 4 4 2 2 2 5 8 6 4 5 5 4 3 4 3 1 3 4 3 3 2 1 3 2 3 6 6 5 4 2 3 2 7 8 5 8 7 2 4 2 3 4 5 2 2 3 2 5 5 5 5 5 4
1 1 1 1 3 4 3 2 3 4 5 5 5 6 4 1 2 3 2 2 2 3 3 1 1 2 2 2 3 2 1 1 4 4 2 3 3 2 4 2 3 8 5 2 4 7 5 4 5 6 6 7 6 5 5 3 2 2 3 6 8 8 9 6 3 3 5 8 8 6 10 8 2 3 4 4 5 4 2 5 3 3 3 2 2 5 6 6
1 1 1 1 1 1 1 1 2 3 6 6 4 5 8 5 2 3 4 2 2 3 2 0 1 3 2 2 3 2 1 2 2 2 3 3 3 2 2 3 1 4 2 2 4 5 4 3 6 10 11 11 9 7 5 7 7 6 6 8 10 9 11 8 4 6 9 6 4 8 12 12 9 3 2 2 2 2 5 6 5 5 4 3 4 6 7 6
1 1 3 2 0 2 2 1 2 2 4 7 4 4 9 8 2 2 4 4 4 5 2 1 2 3 3 4 4 3 2 2 3 2 2 3 2 2 3 2 3 2 2 2 2 4 4 3 7 11 12 9 6 5 6 10 11 12 11 11 12 11 11 11 10 12 10 3 6 13 10 11 17 11 7 8 7 4 8 8 6 5 5 5 6 7 8 7
0 0 1 1 1 3 4 4 6 4 3 6 5 4 8 10 6 4 4 3 2 4 3 1 3 6 6 6 5 3 3 3 1 2 2 2 1 1 3 2 2 4 3 2 0 3 5 5 5 7 9 6 4 3 6 10 9 9 11 13 14 14 15 16 18 19 13 8 13 17 10 13 19 9 7 10 8 5 9 8 3 4 5 6 7 8 8 8
0 1 2 1 1 2 2 3 7 6 4 5 5 5 8 12 12 8 5 4 2 4 6 5 7 9 7 5 5 4 5 5 3 4 4 3 2 2 1 0 2 4 4 3 2 1 4 3 1 4 5 5 5 3 5 8 5 4 8 11 12 15 19 20 20 19 14 11 15 14 7 12 14 4 6 9 6 6 7 4 3 4 6 7 7 7 8 8
1 0 1 2 2 0 1 3 7 7 5 4 4 5 7 11 14 10 5 6 6 4 7 10 10 10 9 8 6 6 7 6 5 4 5 4 3 2 1 2 1 3 4 2 2 2 2 2 1 3 2 4 4 4 4 6 5 4 5 7 10 13 14 14 13 10 7 8 14 12 11 14 9 6 7 9 5 4 6 6 7 7 5 5 6 7 7 7
2 2 2 2 1 1 1 2 5 5 5 6 6 6 7 9 11 9 5 6 8 7 9 13 10 7 7 8 8 9 9 7 4 4 5 5 4 3 2 2 2 2 3 1 1 2 2 1 2 4 3 5 4 7 5 4 4 3 8 12 12 10 8 8 8 8 9 12 13 11 12 14 6 5 6 7 4 5 8 7 6 5 2 4 6 6 6 6
4 3 3 2 1 1 2 2 4 5 5 7 8 6 5 5 6 8 5 5 8 10 10 12 10 6 5 9 12 14 12 8 5 4 6 5 3 3 3 2 3 4 2 1 1 1 3 3 1 3 4 6 4 7 7 5 3 5 12 15 14 10 8 7 6 9 11 11 9 10 11 11 5 3 6 7 4 6 8 4 1 2 3 4 4 4 5 5
Wind_Direction
191 191 182 179 177 176 173 168 165 163 167 168 171 178 177 178 181 178 177 181 184 189 195 199 200 199 197 204 211 211 209 208 191 183 193 205 194 193 203 207 219 216 211 209 195 195 202 261 287 56 101 108 41 105 57 26 82 61 91 114 202 197 206 179 181 203 179 170 191 208 166 138 162 216 135 62 51 73 75 40 2 6 21 14 344 147 155 163
190 191 185 182 179 179 177 171 170 168 170 171 175 181 180 179 181 177 177 182 187 193 198 201 202 199 196 202 205 203 206 193 169 208 215 195 185 199 205 199 208 209 204 202 200 187 153 117 12 61 80 85 337 27 37 329 99 100 122 121 220 205 201 192 196 210 200 173 171 182 168 152 173 173 131 138 231 98 107 14 358 21 18 35 100 137 151 161
189 189 188 188 182 179 177 175 177 175 175 180 182 184 183 179 176 177 179 185 192 197 201 203 201 196 195 197 196 196 183 142 121 245 215 194 193 201 194 193 201 202 196 194 192 175 157 152 83 85 70 59 319 55 83 37 150 166 122 127 239 216 205 215 210 215 237 188 153 166 172 163 191 168 145 160 168 166 173 199 117 214 225 140 140 146 153 163
194 195 191 189 184 179 176 182 189 184 184 189 186 183 184 181 174 175 182 187 196 202 203 201 196 191 193 194 190 186 148 101 234 229 194 191 195 191 190 193 194 194 193 186 176 173 180 134 101 101 84 61 322 44 141 241 196 157 119 179 227 188 158 235 232 279 281 161 150 149 138 187 219 169 157 143 143 240 235 211 191 200 190 168 178 169 163 168
202 202 193 186 185 183 179 186 196 189 189 191 185 180 180 184 177 173 182 191 199 206 207 200 191 186 189 190 183 178 134 100 246 207 181 185 184 184 184 184 186 195 193 182 176 176 180 106 84 81 82 118 358 47 228 236 142 103 212 205 205 144 149 261 269 305 12 107 114 128 145 192 170 146 163 149 162 226 229 211 205 198 173 170 177 176 174 175
204 201 192 187 185 188 186 186 194 189 186 185 181 179 180 187 183 175 181 191 202 207 209 200 184 180 182 181 176 170 141 149 241 171 176 175 173 177 170 173 181 189 190 180 176 156 128 80 76 106 92 110 159 170 230 253 102 117 276 249 229 180 170 222 311 312 112 113 122 149 173 161 122 237 182 164 197 224 225 206 208 203 169 168 166 168 177 183
203 202 197 190 185 191 192 187 193 191 183 179 180 182 185 191 188 183 181 186 201 206 207 200 181 177 171 163 161 131 117 232 227 160 171 169 169 169 159 173 175 179 183 169 155 130 115 92 100 141 105 96 175 199 221 40 60 109 186 272 301 165 150 170 133 29 81 116 155 155 121 148 161 201 132 197 230 237 255 255 188 179 157 157 160 173 187 190
203 204 201 193 189 192 193 193 196 196 191 184 185 185 189 195 190 189 188 187 194 200 205 195 179 170 161 157 141 73 24 238 190 164 168 165 164 159 159 172 168 172 169 158 146 139 130 116 155 152 111 202 182 177 156 80 43 102 169 227 38 27 295 321 69 64 62 93 107 108 115 222 198 181 158 241 246 243 248 30 79 135 142 155 169 183 191 195
202 205 204 203 201 198 196 197 198 201 204 192 189 191 191 196 196 193 195 193 188 192 200 188 180 167 162 156 111 103 228 211 172 169 168 164 161 160 168 173 170 173 156 158 150 141 143 150 193 176 157 216 170 159 139 112 244 185 154 176 135 342 294 351 45 51 66 66 67 110 74 293 245 235 273 247 241 228 159 92 96 128 143 173 181 187 191 196
201 206 208 210 211 211 211 206 201 203 210 203 194 194 193 196 203 198 194 198 190 187 189 185 180 166 168 154 97 147 229 185 170 172 168 165 163 166 176 177 175 176 153 150 150 143 151 175 184 148 143 156 127 135 125 136 192 159 126 123 101 36 304 28 33 296 55 34 103 144 198 304 328 337 266 262 252 148 130 135 158 147 162 187 189 195 197 200
201 206 208 212 215 220 226 226 220 213 212 208 196 194 194 198 207 202 190 192 192 182 179 181 176 168 171 140 122 188 226 167 174 174 170 168 165 173 180 182 182 175 155 138 159 162 151 172 152 116 133 142 112 59 42 144 131 130 122 93 18 359 327 16 119 247 328 90 142 134 158 305 3 319 229 258 347 138 159 172 187 183 187 194 196 202 201 210
201 205 208 212 216 222 228 237 239 231 218 209 204 198 191 195 204 200 187 180 182 177 173 175 173 168 157 101 157 201 190 166 175 173 173 169 169 180 179 186 190 178 164 145 175 177 147 167 128 112 188 142 120 78 150 124 102 125 110 96 339 2 352 273 188 253 191 139 197 125 8 295 223 229 234 282 14 135 171 188 203 211 211 204 204 208 208 219
201 206 208 211 215 222 229 237 241 232 218 209 206 195 185 191 196 191 179 165 163 172 171 168 171 169 146 109 209 198 181 173 172 172 173 173 174 179 178 185 187 181 176 159 179 170 152 182 126 126 139 113 131 188 124 69 85 129 85 97 4 12 340 282 309 315 152 143 333 103 267 278 250 248 259 300 308 145 181 210 213 221 231 227 218 219 223 226
202 206 208 212 216 221 227 227 224 220 213 207 198 188 187 184 181 178 166 156 154 161 168 165 167 170 148 223 221 191 183 172 167 169 169 175 172 168 173 173 170 174 172 150 155 151 144 144 111 107 104 102 139 119 58 25 51 111 84 70 49 89 276 298 316 139 152 280 36 92 199 267 275 277 280 287 251 179 205 230 222 227 238 241 235 230 234 233
204 206 208 216 219 223 227 216 211 213 207 201 198 203 192 172 169 166 158 154 150 154 160 161 163 156 99 289 247 171 173 167 166 169 168 173 170 165 169 160 150 143 139 135 135 130 129 129 96 84 82 35 77 87 48 8 19 49 105 317 345 167 259 307 288 158 158 274 47 92 207 271 280 281 284 306 173 171 209 241 243 240 236 235 237 232 237 242
203 204 212 221 221 224 221 209 206 207 198 199 210 202 175 159 158 155 155 151 144 149 146 152 168 153 117 229 160 152 169 171 170 171 170 174 175 167 153 144 133 127 128 123 122 114 98 96 69 89 122 62 79 96 67 31 353 2 104 206 262 166 257 309 291 225 171 183 17 93 208 268 287 270 280 333 69 137 207 248 256 248 245 240 234 233 234 244
203 205 211 220 224 216 205 201 201 201 197 199 196 173 156 150 147 145 148 141 135 136 123 138 173 163 97 118 118 175 190 177 173 172 168 173 175 159 144 131 114 118 112 96 106 95 57 54 44 180 72 69 104 98 83 54 268 293 45 194 233 177 190 278 279 301 48 120 266 117 202 249 266 270 283 311 39 103 239 252 257 250 251 249 241 246 243 242
202 206 210 220 221 204 195 196 197 198 193 184 165 147 139 131 128 129 132 129 119 104 88 103 144 159 250 201 176 191 174 164 167 168 164 164 165 155 137 111 109 101 76 57 63 57 31 27 57 85 37 51 121 103 126 206 197 191 191 176 238 210 194 236 245 259 47 78 236 190 235 256 265 273 281 287 280 229 253 255 260 258 252 252 250 250 249 247
199 203 210 219 209 195 193 190 191 193 181 167 150 135 123 111 107 113 123 125 114 104 136 177 147 158 217 210 183 131 133 147 153 160 159 154 158 148 99 88 94 86 86 70 28 30 70 55 64 110 149 177 183 158 167 197 174 169 179 150 161 191 225 241 248 261 169 130 247 230 233 255 266 274 275 277 261 214 252 263 262 261 253 251 250 248 250 248
194 199 211 212 193 187 185 179 187 190 181 169 156 139 125 118 97 91 117 150 185 180 195 191 160 146 168 162 135 120 120 125 133 158 160 156 154 136 75 50 50 52 93 138 142 51 85 105 163 187 195 195 191 179 156 154 141 135 125 109 151 182 246 258 262 291 170 148 256 245 249 260 261 268 267 272 280 240 249 256 252 251 249 247 244 246 247 243
189 194 206 194 177 176 175 176 186 187 187 180 170 160 163 160 129 156 206 272 250 239 137 161 132 106 97 125 143 139 116 86 49 134 160 167 145 139 92 31 72 65 46 156 138 23 66 128 213 219 206 193 182 170 127 107 92 96 121 116 117 191 243 269 262 294 351 137 270 332 315 271 255 261 267 268 272 256 239 237 244 245 246 249 247 248 248 250
187 189 187 175 170 173 174 179 186 187 191 187 189 226 230 168 134 150 149 143 242 340 71 117 84 58 59 133 160 150 75 84 75 272 188 162 116 152 154 67 116 147 213 114 90 30 50 190 234 228 195 140 115 140 118 104 92 84 113 125 142 222 259 302 305 310 3 99 275 348 334 281 265 252 257 254 248 251 238 229 238 243 247 249 244 247 252 261
186 183 177 172 171 170 173 178 182 191 196 191 202 236 163 122 133 143 121 102 176 18 59 156 110 101 69 138 189 154 80 131 164 228 207 154 129 171 137 107 130 138 126 134 128 117 115 246 240 204 150 110 88 119 119 100 83 90 110 128 211 250 180 280 300 311 346 51 291 337 315 284 287 276 263 256 249 264 261 242 241 237 238 242 244 247 248 251
177 177 174 172 168 165 168 171 178 196 198 196 208 204 121 104 147 157 108 79 152 226 263 228 148 153 154 158 183 155 117 148 159 192 190 158 147 148 145 143 130 126 161 160 141 149 201 249 205 117 111 112 103 105 128 132 95 7 135 143 186 212 171 202 297 325 347 15 14 3 325 291 313 338 293 288 298 282 268 266 267 248 234 242 254 254 246 247
162 167 169 168 166 162 159 163 188 193 188 198 217 198 139 104 147 164 111 70 165 311 310 245 185 182 176 141 160 167 136 117 172 195 183 164 150 136 166 155 124 161 181 141 130 161 232 252 136 111 88 94 114 135 163 157 161 310 235 173 169 164 159 175 0 31 33 351 336 31 3 290 306 311 272 288 308 286 289 302 277 263 249 241 250 256 254 255
162 163 165 165 159 153 152 169 190 173 169 204 217 194 178 125 137 158 106 54 265 274 158 187 162 177 175 148 158 146 104 221 284 112 153 166 165 116 145 151 93 172 171 135 132 174 234 321 93 122 121 99 111 165 205 147 116 283 242 165 145 128 120 131 80 58 75 260 297 57 102 266 298 281 248 272 299 287 296 292 271 268 269 253 250 262 266 256
171 169 165 164 160 155 158 172 164 158 163 216 206 191 195 153 140 155 84 44 274 199 143 191 329 165 171 170 158 133 157 214 107 72 122 155 223 51 121 179 131 149 164 124 131 222 172 75 67 95 100 100 120 181 207 136 113 240 234 129 125 118 121 137 110 96 213 253 322 16 116 232 289 268 237 299 313 297 291 281 275 275 274 267 260 261 257 248
172 172 167 165 166 164 164 154 160 165 171 186 188 187 179 155 148 128 87 95 245 139 138 218 138 146 152 131 122 116 195 192 121 183 318 92 189 39 100 194 166 145 142 122 173 251 159 146 159 127 98 121 177 216 208 128 105 243 205 126 128 125 129 127 101 97 4 355 314 306 125 201 272 274 305 336 302 292 289 283 286 291 285 275 265 259 258 254
178 175 171 162 161 167 169 162 167 172 153 161 176 178 163 154 142 85 87 174 199 83 125 153 130 139 125 102 80 68 65 53 121 215 344 80 179 42 121 194 149 123 62 101 169 233 105 183 188 137 126 185 200 247 213 132 109 192 140 100 76 75 81 79 92 105 39 354 254 227 181 204 270 285 313 349 284 270 279 286 288 290 289 279 272 269 264 260
188 186 179 166 167 182 185 183 179 162 148 161 165 161 152 139 112 107 165 213 151 89 59 139 164 161 140 136 87 11 104 51 71 104 40 64 11 24 116 152 99 103 36 39 108 239 319 245 190 115 150 187 155 95 105 130 129 130 98 64 43 30 35 43 57 80 58 292 256 229 202 186 273 281 269 217 214 232 262 306 313 316 328 324 305 284 272 272
186 193 189 179 182 187 175 183 186 166 159 162 154 150 138 72 78 144 198 217 121 103 102 141 198 146 151 157 156 149 98 52 157 136 125 151 47 38 120 116 72 87 47 33 45 323 354 36 299 269 166 135 100 68 28 21 78 98 80 73 59 350 6 17 1 42 110 256 265 266 227 152 226 262 266 251 253 240 232 316 334 345 4 359 343 320 300 310
175 190 194 189 187 187 178 174 176 167 161 157 147 135 105 84 186 192 205 228 144 178 171 172 201 167 160 155 139 152 126 85 174 150 144 150 156 176 174 173 156 119 176 188 133 336 24 58 288 310 220 137 104 74 26 4 30 76 91 94 89 339 5 348 309 330 227 246 272 307 324 196 230 244 259 266 265 238 219 248 298 311 0 352 328 307 300 322
158 179 187 189 188 189 190 172 167 163 158 155 142 74 80 135 210 202 184 231 186 168 152 140 140 150 152 145 151 163 115 124 184 158 147 142 162 205 232 199 156 128 184 181 127 131 272 308 305 57 289 192 133 128 133 306 83 125 138 131 129 128 117 264 271 278 266 264 292 321 329 263 274 261 245 252 257 226 212 244 263 256 255 266 264 265 286 330
115 163 178 184 185 184 179 168 170 167 162 156 126 93 123 186 211 157 161 214 177 93 106 123 115 128 148 149 181 177 99 137 180 140 138 137 152 205 233 233 178 104 112 149 151 167 180 272 231 171 217 193 169 172 158 149 156 173 154 135 151 159 162 210 219 217 252 282 299 298 253 210 224 282 255 251 270 256 219 239 259 253 243 246 263 282 326 329
102 145 173 182 186 182 170 163 168 167 167 142 114 148 183 202 204 139 169 196 154 73 53 99 118 134 162 90 232 199 141 161 181 131 155 169 172 195 196 204 197 136 127 161 196 164 163 247 252 254 229 165 174 207 134 116 111 232 123 109 178 188 147 144 191 181 186 310 297 251 230 216 207 280 278 267 289 293 288 300 297 282 265 246 269 294 333 298
115 125 157 174 188 190 183 186 193 175 163 123 139 189 203 196 186 183 179 155 143 133 108 92 99 134 172 147 211 219 163 119 158 146 186 198 201 200 192 204 195 175 161 159 172 160 148 267 283 344 8 157 170 177 132 132 173 175 143 177 216 176 118 112 245 351 74 270 271 212 250 286 333 293 285 301 301 295 304 312 305 308 320 311 293 329 290 261
122 115 121 144 177 194 196 205 215 196 119 126 174 202 197 155 172 179 182 123 134 137 128 138 153 145 168 171 192 206 177 109 154 166 192 200 228 199 193 231 199 184 188 157 168 196 154 230 293 101 153 272 252 126 75 31 128 129 182 210 194 86 82 107 212 341 38 254 274 267 252 281 324 275 308 10 294 264 278 294 308 312 307 302 317 2 249 251
102 101 88 112 151 184 189 194 192 152 84 135 198 216 165 112 173 131 164 130 127 125 135 162 163 140 168 179 187 190 176 164 174 180 179 191 241 197 172 204 204 191 202 166 146 214 149 171 303 12 170 289 353 105 93 356 80 131 187 182 116 125 207 105 161 208 175 249 279 291 274 262 211 224 270 94 196 221 260 278 285 285 282 297 320 314 277 265
85 86 43 144 148 169 165 162 157 118 93 179 203 218 185 137 254 248 248 89 100 117 153 183 162 131 172 174 163 174 185 181 172 179 184 183 237 216 173 185 198 192 198 168 157 199 143 170 259 308 219 308 14 143 191 250 39 62 106 120 98 140 170 161 163 167 168 212 264 301 304 264 217 197 177 196 214 218 251 271 272 275 272 273 293 312 323 328
79 84 291 168 158 164 153 145 128 100 151 196 196 195 146 101 272 272 291 49 74 116 168 189 163 145 167 169 157 171 183 177 168 182 205 185 212 243 199 190 178 178 183 169 168 170 129 178 219 294 329 198 194 208 185 169 155 145 159 172 172 96 111 165 177 125 142 175 210 278 284 265 243 185 174 198 221 222 235 251 254 271 274 247 263 290 327 345
64 104 241 175 160 156 145 134 100 107 165 218 115 112 149 147 296 307 343 56 84 132 145 146 152 150 153 159 176 178 162 159 173 183 211 201 201 229 217 192 163 148 146 162 193 192 164 171 170 164 237 204 228 244 192 182 177 167 181 193 184 160 132 153 234 253 127 173 183 193 276 269 228 185 185 192 212 217 202 192 196 135 84 82 306 252 241 320
88 136 239 179 167 158 146 147 124 118 176 237 134 135 173 133 64 319 340 45 63 62 81 94 125 141 150 162 171 166 152 158 183 184 203 210 199 204 230 199 160 151 147 171 202 190 127 110 135 173 216 217 240 265 222 211 204 142 178 192 175 163 145 154 206 235 191 227 184 130 279 275 204 185 203 190 194 196 179 178 164 126 111 97 317 307 320 325
139 167 259 182 174 160 147 198 172 159 216 182 138 252 189 122 88 229 229 60 64 71 59 60 122 116 148 158 146 163 167 170 186 191 202 213 207 212 234 149 155 154 155 174 189 171 115 111 140 217 308 311 307 325 354 6 154 192 259 166 157 173 163 156 181 179 171 216 184 130 255 268 313 263 221 185 161 128 150 178 148 123 309 328 342 345 356 332
154 169 336 189 178 164 157 187 180 181 192 155 155 207 269 64 165 182 178 146 130 118 112 158 166 130 156 113 116 168 184 186 192 197 194 187 210 230 58 82 173 166 171 195 178 179 197 173 140 131 339 331 333 321 311 322 184 195 223 194 181 173 140 118 136 136 199 221 186 181 242 249 298 322 340 53 85 105 124 205 134 41 335 350 353 337 338 331
119 150 316 333 162 166 185 191 162 169 175 166 173 184 185 224 225 195 167 128 149 160 154 180 146 109 117 92 77 111 130 132 178 187 166 182 239 338 28 355 200 180 197 241 175 173 185 184 161 162 194 211 211 214 217 200 159 197 214 195 191 178 161 165 160 155 225 227 178 191 243 242 259 9 32 58 97 114 299 293 296 304 289 282 304 313 331 339
122 159 211 354 49 198 235 94 124 169 181 174 177 179 178 192 236 194 173 176 195 170 139 117 119 100 108 129 122 134 85 54 105 144 157 185 234 293 315 342 96 169 178 84 139 149 141 192 196 192 208 213 206 214 199 151 157 202 210 184 190 195 183 180 171 190 219 223 184 224 242 249 254 229 170 258 193 202 284 296 293 281 268 269 296 319 327 315
124 168 174 162 179 215 211 185 168 185 180 174 175 174 178 186 196 170 185 200 191 165 130 40 146 164 181 171 160 180 183 83 70 115 166 188 217 294 307 10 60 4 357 82 145 127 122 215 212 203 222 221 191 199 188 167 180 199 197 184 192 198 186 187 206 218 217 200 241 240 226 243 256 236 203 244 250 259 282 282 281 290 296 300 308 315 310 295
180 96 196 160 122 201 208 193 179 180 181 178 177 165 175 185 186 182 191 190 164 168 170 168 191 196 192 175 170 174 158 142 171 197 180 176 188 355 351 10 9 342 3 63 0 113 143 214 213 195 222 220 164 150 173 180 192 199 197 196 197 196 191 197 213 221 209 193 237 243 208 224 252 236 189 228 230 231 261 266 279 309 304 291 289 293 291 293
168 333 296 355 61 211 235 148 156 177 196 183 182 177 178 188 196 196 169 136 157 200 189 197 206 203 197 176 171 175 172 175 199 205 185 168 170 147 104 249 315 350 40 67 2 68 161 209 205 165 207 213 185 158 154 164 173 196 206 203 200 203 204 206 215 223 219 215 241 254 241 243 252 211 191 228 208 203 249 281 293 270 266 269 272 278 284 292
144 247 271 18 40 22 6 111 155 186 200 186 202 205 190 193 198 198 170 160 181 190 192 207 208 195 194 192 190 205 204 191 190 195 178 168 184 186 163 187 191 17 32 66 4 338 184 192 86 106 191 230 194 166 141 140 157 206 236 225 213 211 215 221 227 232 236 243 251 263 271 265 248 166 210 239 204 214 266 280 268 263 258 258 262 267 276 287
182 38 98 84 12 198 180 120 153 179 195 198 208 203 199 204 196 186 185 194 189 173 187 205 202 182 189 193 198 218 222 212 200 173 150 152 179 187 199 200 141 75 20 59 58 17 88 149 45 84 188 233 185 160 161 124 120 226 254 241 223 209 208 219 224 219 215 227 242 248 254 261 245 153 228 249 185 211 253 252 263 294 298 252 261 272 279 283
184 31 80 103 13 204 181 129 151 179 201 208 211 202 193 193 171 168 186 220 204 189 190 196 185 162 183 196 206 218 218 214 207 164 151 169 186 183 203 216 152 147 156 112 86 62 113 125 90 116 194 239 195 152 148 116 113 242 245 234 222 212 209 209 221 226 213 209 227 235 242 261 268 184 244 267 233 240 268 272 270 287 247 235 258 279 284 288